Location: Ash Swamp
(41.5170°N, 74.6157°W)
Time: 17:25:00
(UTC+00:00)

Cosmos 44 - Pass Details

Date: 14 July 2020
Orbit: 587 x 775 km, 65.1° (Epoch: 04 August)

Event Time Altitude Azimuth Distance (km) Brightness Sun altitude
Rises 02:45:26 0° 230° (SW) 2,803 6.4 -19.1°
Reaches altitude 10° 02:47:45 10° 238° (WSW) 1,910 5.6 -19.4°
Maximum altitude 02:51:47 40° 308° (NW) 881 4.3 -19.8°
Drops below altitude 10° 02:55:59 10° 20° (NNE) 1,973 6.1 -20.2°
Sets 02:58:24 0° 27° (NNE) 2,907 6.9 -20.4°
